SL-12 R/B(AUX MOTOR), 29682

Orbit data source: Space-Track

SL-12 R/B(AUX MOTOR), 29682 is space debris in HEO originally from a launch on Mon, 25 Dec 2006 UTC launched from the Tyuratam Missile And Space Complex (TTMTR). Debris objects in space refer to the collection of defunct objects orbiting the Earth. Examples of debris include non-operational satellites, rocket bodies, and fragments generated from explosions, collisions, or faulty payload assembly.

Loading next visibility...
Identifier
29682, 2006-062H
Orbit
HEO
Country
Flag of CISCIS
Related business
Manufacturer
RKKE
Mission
Spacecraft
Bus & Motor
SOZ, Unknown motor
Mass
56 kg wet, 56 kg dry
Launch date (UTC)
2006-12-25 (19 years ago)
Launch vehicle
Unknown
Launch site
Tyuratam Missile And Space Complex (TTMTR)
Object type
Payload
Rocket body
Debris
Shape & HBR
Cyl, 0.6 m
Radar Cross Section
0.660 m², Medium (>0.1 m² and < 1m²)

Expand to show TLE details & history
Last TLE update: 1 month ago

TLE from 1 month ago
0 SL-12 R/B(AUX MOTOR)
1 29682U 06062H   25276.91431587  .00000060  00000-0  37508-6 0  9996
2 29682  65.1744 108.2497 5571097 264.6392  32.9484  4.25375312290679
Epoch: 2025-10-03T21:56Z
TLE epoch observation values (Epoch: 2025-10-03T21:56:36.891Z)
Latitude
-0.00008°
Longitude
126.23578°
Altitude
5,333.631 km
Speed
6.581 km/s
True Right ascension
07h 12m 58s
True Declination
0° 00' 00"
Sunlit
Object was in daylight at epoch
Visualization orbit readout
Latitude
Unknown
Longitude
Unknown
Altitude
Unknown
Speed
Unknown
Apparent Right ascension
Unknown
Apparent Declination
Unknown
Sunlit
N/A
Visualization observer readout
Local Sidereal Time
00:31:28
Azimuth
Unknown
Elevation
Unknown
Doppler factor
Unknown
Orbital elements
Apogee altitude
18,673.882 km
Perigee altitude
747.434 km
Semi-major axis
16,088.795 km
Eccentricity
0.55711
Inclination
65.1744°
RAAN
108.2497°
Arg. of periapsis
264.6392°
True anomaly
95.47582°
Mean anomaly
32.9484°
Eccentric anomaly
60.81662°
Mean motion
1.06355 °/min
Orbital period
338.49 mins
BSTAR
3.7508e-7
Loading maneuver chart data...
Computing Atmospheric mass density...
Loading historical data...
Loading historical data...
Loading historical data...
Loading historical data...
Loading historical data...
Loading historical data...
Loading historical data...

Documentation

Showing up to 5 results
|